Location: Bremen
(53.0793°N, 8.8017°E)
Time: 21:28:22
(UTC+02:00)

Vanguard 2 Rocket - Pass Details

Date: 21 April 2024
Orbit: 556 x 3304 km, 32.9° (Epoch: 20 May)

Event Time Altitude Azimuth Distance (km) Brightness Sun altitude
Rises 01:56:59 0° 257° (WSW) 6,985 11.2 -24.6°
Reaches altitude 10° 02:02:00 10° 250° (WSW) 6,142 10.8 -24.4°
Maximum altitude 02:18:57 37° 194° (SSW) 4,300 9.7 -23.9°
Drops below altitude 10° 02:33:43 10° 135° (SE) 5,370 10.6 -23.2°
Sets 02:37:45 0° 127° (SE) 6,053 10.9 -23.0°
